• In Italy
  • List of Countries
  • For 7 days
  • Water Temperature
  • Satellite Maps
  • Weather Map
  • Weather Widgets
  • user-avatar
    Login

    Hourly Weather Luanda

    Today, 21 September, Thursday

    Time Temperature Precipitation Wind Pressure Humidity
    00:00 +26°C° 0 mm 3 mps 755 mmHg 79%
    01:00 +26°C° 0 mm 2 mps 755 mmHg 77%
    02:00 +26°C° 0 mm 3 mps 755 mmHg 77%
    03:00 +25°C° 0 mm 3 mps 755 mmHg 77%
    04:00 +25°C° 0 mm 3 mps 755 mmHg 77%
    05:00 +25°C° 0 mm 3 mps 755 mmHg 77%
    06:00 +26°C° 0 mm 2 mps 755 mmHg 76%
    07:00 +26°C° 0 mm 2 mps 756 mmHg 75%
    08:00 +27°C° 0 mm 3 mps 756 mmHg 67%
    09:00 +29°C° 0 mm 3 mps 756 mmHg 60%
    10:00 +31°C° 0 mm 3 mps 756 mmHg 53%
    11:00 +33°C° 0 mm 4 mps 755 mmHg 49%
    12:00 +34°C° 0 mm 4 mps 754 mmHg 46%
    13:00 +35°C° 0 mm 5 mps 754 mmHg 43%
    14:00 +34°C° 0 mm 5 mps 753 mmHg 47%
    15:00 +33°C° 0 mm 5 mps 753 mmHg 51%
    16:00 +32°C° 0 mm 5 mps 753 mmHg 55%
    17:00 +29°C° 0 mm 5 mps 753 mmHg 61%
    18:00 +28°C° 0 mm 5 mps 753 mmHg 68%
    19:00 +26°C° 0 mm 5 mps 754 mmHg 75%
    20:00 +26°C° 0 mm 4 mps 754 mmHg 76%
    21:00 +26°C° 0 mm 4 mps 755 mmHg 78%
    22:00 +26°C° 0 mm 3 mps 755 mmHg 79%
    23:00 +25°C° 0 mm 3 mps 755 mmHg 80%

    Tomorrow, 22 September, Friday

    Time Temperature Precipitation Wind Pressure Humidity
    00:00 +25°C° 0 mm 3 mps 755 mmHg 81%
    01:00 +25°C° 0 mm 3 mps 755 mmHg 81%
    02:00 +25°C° 0 mm 3 mps 754 mmHg 80%
    03:00 +25°C° 0 mm 3 mps 754 mmHg 80%
    04:00 +25°C° 0 mm 3 mps 754 mmHg 79%
    05:00 +25°C° 0.1 mm 3 mps 754 mmHg 77%
    06:00 +25°C° 0.1 mm 3 mps 755 mmHg 76%
    07:00 +26°C° 0.1 mm 3 mps 756 mmHg 75%
    08:00 +27°C° 0 mm 2 mps 756 mmHg 67%
    09:00 +29°C° 0 mm 2 mps 756 mmHg 60%
    10:00 +30°C° 0 mm 1 mps 756 mmHg 53%
    11:00 +31°C° 0 mm 2 mps 755 mmHg 50%
    12:00 +34°C° 0 mm 3 mps 754 mmHg 47%
    13:00 +35°C° 0 mm 5 mps 753 mmHg 43%
    14:00 +33°C° 0 mm 5 mps 753 mmHg 47%
    15:00 +32°C° 0 mm 5 mps 752 mmHg 51%
    16:00 +30°C° 0 mm 5 mps 752 mmHg 55%
    17:00 +29°C° 0 mm 5 mps 752 mmHg 62%
    18:00 +28°C° 0 mm 4 mps 753 mmHg 68%
    19:00 +26°C° 0 mm 4 mps 753 mmHg 74%
    20:00 +26°C° 0 mm 4 mps 754 mmHg 76%
    21:00 +26°C° 0 mm 4 mps 755 mmHg 78%
    22:00 +25°C° 0 mm 4 mps 755 mmHg 80%
    23:00 +25°C° 0 mm 4 mps 755 mmHg 79%

    Day after tomorrow, 23 September, Saturday

    Time Temperature Precipitation Wind Pressure Humidity
    00:00 +25°C° 0 mm 4 mps 755 mmHg 79%
    01:00 +25°C° 0 mm 3 mps 755 mmHg 78%
    02:00 +25°C° 0.1 mm 3 mps 755 mmHg 77%
    03:00 +25°C° 0.1 mm 2 mps 754 mmHg 76%
    04:00 +25°C° 0.1 mm 2 mps 754 mmHg 75%
    05:00 +25°C° 0 mm 2 mps 755 mmHg 74%
    06:00 +25°C° 0 mm 2 mps 755 mmHg 74%
    07:00 +26°C° 0 mm 2 mps 755 mmHg 73%
    08:00 +27°C° 0 mm 2 mps 755 mmHg 67%
    09:00 +28°C° 0 mm 2 mps 755 mmHg 60%
    10:00 +30°C° 0 mm 3 mps 756 mmHg 53%
    11:00 +31°C° 0 mm 3 mps 755 mmHg 50%
    12:00 +31°C° 0 mm 3 mps 754 mmHg 48%
    13:00 +33°C° 0 mm 4 mps 753 mmHg 46%
    14:00 +32°C° 0 mm 4 mps 753 mmHg 48%
    15:00 +32°C° 0 mm 5 mps 752 mmHg 51%
    16:00 +30°C° 0 mm 5 mps 752 mmHg 54%
    17:00 +29°C° 0 mm 5 mps 753 mmHg 61%
    18:00 +27°C° 0 mm 5 mps 753 mmHg 67%
    19:00 +26°C° 0 mm 5 mps 754 mmHg 73%
    20:00 +26°C° 0 mm 4 mps 755 mmHg 75%
    21:00 +26°C° 0 mm 4 mps 755 mmHg 77%
    22:00 +25°C° 0 mm 4 mps 755 mmHg 79%
    23:00 +25°C° 0 mm 3 mps 755 mmHg 78%

    24 September, Sunday

    Time Temperature Precipitation Wind Pressure Humidity
    00:00 +25°C° 0 mm 3 mps 755 mmHg 77%
    01:00 +25°C° 0 mm 2 mps 755 mmHg 76%
    02:00 +25°C° 0.1 mm 2 mps 755 mmHg 76%
    03:00 +25°C° 0.1 mm 2 mps 755 mmHg 76%
    04:00 +25°C° 0.1 mm 2 mps 755 mmHg 76%
    05:00 +25°C° 0 mm 2 mps 755 mmHg 75%
    06:00 +25°C° 0 mm 2 mps 756 mmHg 74%
    07:00 +25°C° 0 mm 1 mps 756 mmHg 74%
    08:00 +27°C° 0 mm 2 mps 756 mmHg 66%
    09:00 +29°C° 0 mm 2 mps 756 mmHg 58%
    10:00 +30°C° 0 mm 2 mps 756 mmHg 50%
    11:00 +31°C° 0 mm 3 mps 755 mmHg 48%
    12:00 +33°C° 0 mm 3 mps 755 mmHg 46%
    13:00 +34°C° 0 mm 4 mps 754 mmHg 44%
    14:00 +33°C° 0 mm 4 mps 753 mmHg 47%
    15:00 +32°C° 0 mm 5 mps 753 mmHg 50%
    16:00 +30°C° 0 mm 5 mps 752 mmHg 53%
    17:00 +29°C° 0 mm 4 mps 753 mmHg 59%
    18:00 +28°C° 0 mm 4 mps 754 mmHg 65%
    19:00 +26°C° 0 mm 4 mps 754 mmHg 70%
    20:00 +26°C° 0 mm 4 mps 755 mmHg 72%
    21:00 +26°C° 0 mm 4 mps 755 mmHg 74%
    22:00 +26°C° 0 mm 4 mps 755 mmHg 76%
    23:00 +25°C° 0 mm 3 mps 755 mmHg 77%

    25 September, Monday

    Time Temperature Precipitation Wind Pressure Humidity
    00:00 +25°C° 0 mm 3 mps 755 mmHg 79%
    01:00 +25°C° 0 mm 3 mps 754 mmHg 81%
    02:00 +25°C° 0 mm 3 mps 755 mmHg 80%
    03:00 +25°C° 0 mm 2 mps 755 mmHg 80%
    04:00 +25°C° 0 mm 2 mps 755 mmHg 80%
    05:00 +25°C° 0.1 mm 2 mps 755 mmHg 79%
    06:00 +25°C° 0.1 mm 2 mps 755 mmHg 79%
    07:00 +25°C° 0.1 mm 2 mps 756 mmHg 78%
    08:00 +26°C° 0 mm 2 mps 756 mmHg 73%
    09:00 +27°C° 0 mm 2 mps 756 mmHg 68%
    10:00 +28°C° 0 mm 2 mps 756 mmHg 63%
    11:00 +29°C° 0 mm 2 mps 755 mmHg 60%
    12:00 +29°C° 0 mm 3 mps 754 mmHg 57%
    13:00 +30°C° 0 mm 3 mps 753 mmHg 54%
    14:00 +30°C° 0 mm 3 mps 753 mmHg 53%
    15:00 +30°C° 0 mm 4 mps 753 mmHg 52%
    16:00 +32°C° 0 mm 4 mps 752 mmHg 51%
    17:00 +29°C° 0 mm 4 mps 753 mmHg 58%
    18:00 +28°C° 0 mm 4 mps 753 mmHg 65%
    19:00 +26°C° 0 mm 3 mps 753 mmHg 72%
    20:00 +26°C° 0 mm 3 mps 754 mmHg 73%
    21:00 +26°C° 0 mm 3 mps 754 mmHg 75%
    22:00 +25°C° 0 mm 3 mps 754 mmHg 77%
    23:00 +25°C° 0 mm 3 mps 754 mmHg 78%

    26 September, Tuesday

    Time Temperature Precipitation Wind Pressure Humidity
    00:00 +25°C° 0 mm 3 mps 754 mmHg 80%
    01:00 +25°C° 0 mm 3 mps 754 mmHg 81%
    02:00 +24°C° 0 mm 3 mps 754 mmHg 82%
    03:00 +24°C° 0 mm 2 mps 754 mmHg 83%
    04:00 +24°C° 0 mm 2 mps 754 mmHg 84%
    05:00 +24°C° 0 mm 2 mps 754 mmHg 82%
    06:00 +25°C° 0 mm 2 mps 755 mmHg 80%
    07:00 +25°C° 0 mm 2 mps 755 mmHg 78%
    08:00 +26°C° 0 mm 2 mps 755 mmHg 72%
    09:00 +27°C° 0 mm 2 mps 755 mmHg 66%
    10:00 +28°C° 0 mm 2 mps 755 mmHg 59%
    11:00 +29°C° 0 mm 3 mps 754 mmHg 55%
    12:00 +30°C° 0 mm 3 mps 753 mmHg 51%
    13:00 +33°C° 0 mm 3 mps 752 mmHg 47%
    14:00 +32°C° 0 mm 4 mps 752 mmHg 49%
    15:00 +32°C° 0 mm 4 mps 752 mmHg 51%
    16:00 +30°C° 0 mm 5 mps 752 mmHg 53%
    17:00 +29°C° 0 mm 4 mps 752 mmHg 59%
    18:00 +27°C° 0 mm 4 mps 753 mmHg 65%
    19:00 +26°C° 0 mm 4 mps 753 mmHg 71%
    20:00 +26°C° 0 mm 3 mps 754 mmHg 73%
    21:00 +25°C° 0 mm 3 mps 754 mmHg 75%
    22:00 +25°C° 0 mm 3 mps 755 mmHg 77%
    23:00 +25°C° 0 mm 3 mps 754 mmHg 78%
    Show more